Skip Page Navigation
NASA JPL Caltech
NASA Logo - Jet Propulsion Laboratory + View the NASA Portal
+ Center for Near-Earth Object Studies
JPL Home Earth Solar System Stars & Galaxies Technology
JPL Solar System Dynamics
BODIES ORBITS EPHEMERIDES TOOLS PHYSICAL DATA DISCOVERY FAQ SITE MAP
IMPORTANT: The SSD Announcement email list is now available. Major changes are coming in the near future, including possible hostname and/or URL changes. To be notified of such changes, subscribe to this email list.

Please visit this page for more details.


JPL Small-Body Database Browser
Search: [ help ]  
168700 (2000 GE147)
Classification: TransNeptunian Object          SPK-ID: 2168700
Ephemeris | Orbit Diagram | Orbital Elements | Physical Parameters | Discovery Circumstances ]

[ show orbit diagram ]
Orbital Elements at Epoch 2459000.5 (2020-May-31.0) TDB
Reference: JPL 5 (heliocentric ecliptic J2000)
 Element Value Uncertainty (1-sigma)   Units 
e .2339272558618268 0.00023313  
a 39.61520106917251 0.01461 au
q 30.34812579264648 0.0019679 au
i 4.990426490511717 0.00019548 deg
node 154.803941505785 0.0028302 deg
peri 50.94881596864122 0.014918 deg
M 23.55417943291106 0.021207 deg
tp 2453041.728909688543
(2004-Feb-06.22890969)
2.2505 TDB
period 91073.33153430956
249.35
50.381
0.1379
d
yr
n .003952858580388916 2.1867e-06 deg/d
Q 48.88227634569855 0.018028 au
  Orbit Determination Parameters
   # obs. used (total)      23  
   data-arc span      6612 days (18.10 yr)  
   first obs. used      2000-03-03  
   last obs. used      2018-04-10  
   planetary ephem.      DE431  
   SB-pert. ephem.      SB431-N16  
   condition code      4  
   norm. resid. RMS      .17823  
   source      ORB  
   producer      Otto Matic  
   solution date      2019-Jul-13 06:43:19  

Additional Information
 Earth MOID = 29.3467 au 
 Jupiter MOID = 24.8982 au 
 T_jup = 5.476 
[ show covariance matrix ]

Ephemeris | Orbit Diagram | Orbital Elements | Physical Parameters | Discovery Circumstances ]

Physical Parameter Table
Parameter Symbol Value Units Sigma Reference Notes
absolute magnitude H 8.3   n/a MPO338356  

168700 (2000 GE147)          Discovered 2000-Apr-02 by Jewitt, D. C., Trujillo, C. A., Sheppard, S. S. at Mauna Kea
Reference: 20071124/Numbers.arcLast Updated: 2007-11-26
Ephemeris | Orbit Diagram | Orbital Elements | Physical Parameters | Discovery Circumstances ]
ABOUT SSD CREDITS/AWARDS PRIVACY/COPYRIGHT GLOSSARY LINKS
FirstGov 2020-Jun-03 00:39 UT
(server date/time)  
NASA Home Page
Site Manager:   Ryan S. Park
Webmaster  Alan B. Chamberlin